When you browse on this site, cookies collect data to enhance your experience and personalize the content and advertising you see.
Visit our Privacy Policy to learn more. By continuing to use the site, you agree to this use of cookies and data.
  • In Portugal
  • List of Countries
  • For 7 days
  • Water Temperature
  • Satellite Maps
  • Weather Map
  • Weather Widgets
  • user-avatar
    Login

    Hourly Weather Fesevka

    Today, 16 November, Friday

    Time Temperature Precipitation Wind Pressure Humidity
    00:00 0°C° 0 mm 1 mps 761 mmHg 91%
    01:00 0°C° 0 mm 1 mps 762 mmHg 90%
    02:00 -1°C° 0 mm 1 mps 762 mmHg 86%
    03:00 -2°C° 0 mm 1 mps 762 mmHg 85%
    04:00 -2°C° 0 mm 1 mps 762 mmHg 84%
    05:00 -2°C° 0 mm 1 mps 763 mmHg 83%
    06:00 -2°C° 0 mm 1 mps 763 mmHg 82%
    07:00 -5°C° 0 mm 2 mps 763 mmHg 81%
    08:00 -5°C° 0 mm 2 mps 764 mmHg 79%
    09:00 -2°C° 0 mm 1 mps 764 mmHg 76%
    10:00 0°C° 0 mm 1 mps 764 mmHg 72%
    11:00 +1°C° 0 mm 1 mps 764 mmHg 69%
    12:00 +1°C° 0 mm 1 mps 764 mmHg 70%
    13:00 +1°C° 0 mm 1 mps 765 mmHg 72%
    14:00 +2°C° 0 mm 1 mps 765 mmHg 74%
    15:00 0°C° 0 mm 1 mps 765 mmHg 74%
    16:00 -1°C° 0 mm 1 mps 765 mmHg 74%
    17:00 -2°C° 0 mm 1 mps 765 mmHg 74%
    18:00 -2°C° 0 mm 1 mps 765 mmHg 73%
    19:00 -2°C° 0 mm 1 mps 765 mmHg 72%
    20:00 -2°C° 0 mm 1 mps 765 mmHg 71%
    21:00 -2°C° 0 mm 1 mps 765 mmHg 69%
    22:00 -3°C° 0 mm 1 mps 765 mmHg 67%
    23:00 -3°C° 0 mm 1 mps 765 mmHg 66%

    Tomorrow, 17 November, Saturday

    Time Temperature Precipitation Wind Pressure Humidity
    00:00 -3°C° 0 mm 1 mps 765 mmHg 64%
    01:00 -4°C° 0 mm 0 mps 765 mmHg 63%
    02:00 -4°C° 0 mm 0 mps 765 mmHg 61%
    03:00 -4°C° 0 mm 0 mps 764 mmHg 60%
    04:00 -4°C° 0 mm 0 mps 764 mmHg 60%
    05:00 -4°C° 0 mm 0 mps 764 mmHg 59%
    06:00 -3°C° 0 mm 1 mps 764 mmHg 60%
    07:00 -3°C° 0 mm 1 mps 764 mmHg 60%
    08:00 -3°C° 0 mm 1 mps 763 mmHg 60%
    09:00 -2°C° 0 mm 1 mps 763 mmHg 60%
    10:00 -1°C° 0 mm 1 mps 763 mmHg 60%
    11:00 +1°C° 0 mm 1 mps 762 mmHg 60%
    12:00 -1°C° 0 mm 2 mps 762 mmHg 62%
    13:00 -1°C° 0 mm 2 mps 761 mmHg 65%
    14:00 -1°C° 0 mm 2 mps 760 mmHg 67%
    15:00 -1°C° 0 mm 3 mps 760 mmHg 69%
    16:00 -2°C° 0 mm 3 mps 759 mmHg 71%
    17:00 -2°C° 0 mm 3 mps 759 mmHg 72%
    18:00 -2°C° 0 mm 3 mps 758 mmHg 74%
    19:00 -2°C° 0 mm 3 mps 757 mmHg 76%
    20:00 -3°C° 0 mm 4 mps 756 mmHg 78%
    21:00 -3°C° 0 mm 4 mps 756 mmHg 82%
    22:00 -3°C° 0 mm 4 mps 755 mmHg 85%
    23:00 -3°C° 0 mm 4 mps 754 mmHg 89%

    Day after tomorrow, 18 November, Sunday

    Time Temperature Precipitation Wind Pressure Humidity
    00:00 -3°C° 0 mm 4 mps 754 mmHg 91%
    01:00 -2°C° 0 mm 4 mps 753 mmHg 92%
    02:00 -2°C° 0 mm 5 mps 752 mmHg 94%
    03:00 -2°C° 0.1 mm 4 mps 751 mmHg 94%
    04:00 -1°C° 0.1 mm 4 mps 750 mmHg 95%
    05:00 -1°C° 0.1 mm 4 mps 749 mmHg 96%
    06:00 -1°C° 0.1 mm 4 mps 749 mmHg 96%
    07:00 -1°C° 0.1 mm 4 mps 748 mmHg 96%
    08:00 -1°C° 0.1 mm 4 mps 748 mmHg 97%
    09:00 +1°C° 0.1 mm 3 mps 747 mmHg 97%
    10:00 +1°C° 0.1 mm 3 mps 747 mmHg 97%
    11:00 +1°C° 0.1 mm 3 mps 747 mmHg 98%
    12:00 +1°C° 0.1 mm 3 mps 747 mmHg 98%
    13:00 +1°C° 0.1 mm 3 mps 746 mmHg 98%
    14:00 +2°C° 0.1 mm 2 mps 746 mmHg 98%
    15:00 +2°C° 0.3 mm 2 mps 746 mmHg 98%
    16:00 +2°C° 0.3 mm 2 mps 746 mmHg 98%
    17:00 +1°C° 0.3 mm 2 mps 746 mmHg 97%
    18:00 0°C° 0.2 mm 3 mps 746 mmHg 97%
    19:00 0°C° 0.2 mm 3 mps 746 mmHg 97%
    20:00 0°C° 0.2 mm 3 mps 746 mmHg 96%
    21:00 0°C° 0.1 mm 3 mps 746 mmHg 96%
    22:00 0°C° 0.1 mm 3 mps 746 mmHg 96%
    23:00 0°C° 0.1 mm 3 mps 747 mmHg 96%

    19 November, Monday

    Time Temperature Precipitation Wind Pressure Humidity
    00:00 0°C° 0 mm 3 mps 747 mmHg 96%
    01:00 0°C° 0 mm 3 mps 747 mmHg 96%
    02:00 0°C° 0 mm 3 mps 748 mmHg 96%
    03:00 0°C° 0.1 mm 3 mps 748 mmHg 96%
    04:00 0°C° 0.1 mm 3 mps 748 mmHg 95%
    05:00 0°C° 0.1 mm 3 mps 748 mmHg 95%
    06:00 -1°C° 0.1 mm 4 mps 748 mmHg 95%
    07:00 -1°C° 0.1 mm 4 mps 748 mmHg 94%
    08:00 -1°C° 0.1 mm 4 mps 748 mmHg 94%
    09:00 -1°C° 0.2 mm 4 mps 749 mmHg 94%
    10:00 -1°C° 0.2 mm 4 mps 749 mmHg 94%
    11:00 -1°C° 0.2 mm 4 mps 750 mmHg 94%
    12:00 -1°C° 0.2 mm 4 mps 750 mmHg 94%
    13:00 -1°C° 0.2 mm 4 mps 750 mmHg 94%
    14:00 0°C° 0.2 mm 3 mps 750 mmHg 94%
    15:00 0°C° 0.1 mm 3 mps 751 mmHg 94%
    16:00 0°C° 0.1 mm 3 mps 751 mmHg 94%
    17:00 0°C° 0.1 mm 3 mps 751 mmHg 94%
    18:00 -1°C° 0.2 mm 3 mps 751 mmHg 94%
    19:00 -1°C° 0.2 mm 3 mps 752 mmHg 94%
    20:00 -2°C° 0.2 mm 4 mps 752 mmHg 93%
    21:00 -2°C° 0.1 mm 4 mps 752 mmHg 93%
    22:00 -2°C° 0.1 mm 4 mps 753 mmHg 92%
    23:00 -3°C° 0.1 mm 4 mps 753 mmHg 91%

    20 November, Tuesday

    Time Temperature Precipitation Wind Pressure Humidity
    00:00 -4°C° 0 mm 3 mps 753 mmHg 90%
    01:00 -4°C° 0 mm 3 mps 753 mmHg 90%
    02:00 -5°C° 0 mm 3 mps 753 mmHg 90%
    03:00 -5°C° 0 mm 3 mps 753 mmHg 89%
    04:00 -6°C° 0 mm 3 mps 753 mmHg 89%
    05:00 -6°C° 0 mm 3 mps 753 mmHg 88%
    06:00 -6°C° 0 mm 3 mps 753 mmHg 88%
    07:00 -6°C° 0 mm 3 mps 753 mmHg 88%
    08:00 -5°C° 0 mm 3 mps 753 mmHg 88%
    09:00 -5°C° 0 mm 4 mps 753 mmHg 87%
    10:00 -4°C° 0 mm 4 mps 753 mmHg 86%
    11:00 -3°C° 0 mm 4 mps 753 mmHg 85%
    12:00 -3°C° 0 mm 4 mps 753 mmHg 85%
    13:00 -2°C° 0 mm 4 mps 753 mmHg 84%
    14:00 -1°C° 0 mm 3 mps 752 mmHg 83%
    15:00 -1°C° 0 mm 3 mps 752 mmHg 84%
    16:00 -2°C° 0 mm 3 mps 752 mmHg 85%
    17:00 -2°C° 0 mm 3 mps 752 mmHg 86%
    18:00 -2°C° 0 mm 3 mps 752 mmHg 85%
    19:00 -2°C° 0 mm 3 mps 752 mmHg 85%
    20:00 -4°C° 0 mm 3 mps 752 mmHg 84%
    21:00 -4°C° 0 mm 3 mps 751 mmHg 86%
    22:00 -3°C° 0 mm 2 mps 751 mmHg 87%
    23:00 -4°C° 0 mm 2 mps 751 mmHg 89%

    21 November, Wednesday

    Time Temperature Precipitation Wind Pressure Humidity
    00:00 -4°C° 0 mm 2 mps 751 mmHg 91%
    01:00 -4°C° 0 mm 2 mps 751 mmHg 92%
    02:00 -4°C° 0 mm 2 mps 751 mmHg 94%
    03:00 -3°C° 0 mm 2 mps 751 mmHg 94%
    04:00 -3°C° 0 mm 2 mps 751 mmHg 93%
    05:00 -3°C° 0 mm 2 mps 750 mmHg 93%
    06:00 -4°C° 0 mm 3 mps 750 mmHg 93%
    07:00 -4°C° 0 mm 3 mps 750 mmHg 93%
    08:00 -4°C° 0 mm 3 mps 750 mmHg 93%
    09:00 -2°C° 0 mm 3 mps 750 mmHg 91%
    10:00 -2°C° 0 mm 3 mps 750 mmHg 90%
    11:00 -2°C° 0 mm 3 mps 750 mmHg 88%
    12:00 -2°C° 0 mm 3 mps 749 mmHg 88%
    13:00 -3°C° 0 mm 4 mps 749 mmHg 88%
    14:00 -3°C° 0 mm 4 mps 749 mmHg 87%
    15:00 -3°C° 0 mm 4 mps 748 mmHg 87%
    16:00 -3°C° 0 mm 4 mps 748 mmHg 88%
    17:00 -4°C° 0 mm 4 mps 748 mmHg 88%
    18:00 -4°C° 0 mm 4 mps 748 mmHg 88%
    19:00 -4°C° 0 mm 4 mps 748 mmHg 88%
    20:00 -5°C° 0 mm 4 mps 747 mmHg 88%
    21:00 -5°C° 0 mm 4 mps 747 mmHg 87%
    22:00 -6°C° 0 mm 5 mps 747 mmHg 86%
    23:00 -6°C° 0 mm 5 mps 747 mmHg 85%
    Show more